LOCATION_NAME,SAMPLE COLLECTION TIME,DOSE EQUIVALENT RATE (nSv/h),GAMMA COUNT RATE R02 (CPM),GAMMA COUNT RATE R03 (CPM),GAMMA COUNT RATE R04 (CPM),GAMMA COUNT RATE R05 (CPM),GAMMA COUNT RATE R06 (CPM),GAMMA COUNT RATE R07 (CPM),GAMMA COUNT RATE R08 (CPM),GAMMA COUNT RATE R09 (CPM),STATUS
NJ: EDISON,01/01/2020 00:43:00,,1843.00,1109.00,331.00,176.00,106.00,122.00,75.00,35.00,APPROVED
NJ: EDISON,01/01/2020 01:43:00,,1867.00,1139.00,338.00,179.00,108.00,126.00,75.00,35.00,APPROVED
NJ: EDISON,01/01/2020 02:43:00,,1949.00,1226.00,365.00,199.00,116.00,137.00,79.00,37.00,APPROVED
NJ: EDISON,01/01/2020 03:43:00,,1891.00,1164.00,351.00,188.00,114.00,131.00,76.00,37.00,APPROVED
NJ: EDISON,01/01/2020 04:44:00,,1850.00,1136.00,343.00,181.00,110.00,127.00,76.00,35.00,APPROVED
NJ: EDISON,01/01/2020 05:44:00,,1874.00,1150.00,337.00,185.00,110.00,124.00,78.00,37.00,APPROVED
NJ: EDISON,01/01/2020 06:44:00,,1845.00,1150.00,336.00,182.00,113.00,127.00,75.00,36.00,APPROVED
NJ: EDISON,01/01/2020 07:44:00,,1852.00,1144.00,338.00,181.00,112.00,127.00,76.00,36.00,APPROVED
NJ: EDISON,01/01/2020 08:44:00,,1848.00,1138.00,343.00,182.00,112.00,123.00,76.00,36.00,APPROVED
NJ: EDISON,01/01/2020 09:45:00,,1849.00,1147.00,342.00,188.00,111.00,128.00,76.00,37.00,APPROVED
NJ: EDISON,01/01/2020 10:45:00,,1855.00,1151.00,339.00,184.00,110.00,130.00,76.00,36.00,APPROVED
NJ: EDISON,01/01/2020 11:45:00,,1849.00,1140.00,342.00,181.00,112.00,126.00,76.00,35.00,APPROVED
NJ: EDISON,01/01/2020 12:45:00,,1830.00,1136.00,339.00,180.00,109.00,124.00,77.00,36.00,APPROVED
NJ: EDISON,01/01/2020 13:45:00,,1810.00,1119.00,331.00,181.00,112.00,121.00,74.00,36.00,APPROVED
NJ: EDISON,01/01/2020 14:46:00,,1806.00,1114.00,332.00,181.00,110.00,121.00,77.00,35.00,APPROVED
NJ: EDISON,01/01/2020 15:46:00,,1811.00,1117.00,335.00,179.00,107.00,121.00,75.00,35.00,APPROVED
NJ: EDISON,01/01/2020 16:46:00,,1815.00,1111.00,335.00,178.00,106.00,124.00,75.00,35.00,APPROVED
NJ: EDISON,01/01/2020 17:46:00,,1810.00,1119.00,332.00,177.00,106.00,123.00,76.00,36.00,APPROVED
NJ: EDISON,01/01/2020 18:46:00,,1806.00,1111.00,332.00,176.00,108.00,119.00,74.00,36.00,APPROVED
NJ: EDISON,01/01/2020 19:47:00,,1807.00,1118.00,333.00,176.00,107.00,122.00,74.00,36.00,APPROVED
NJ: EDISON,01/01/2020 20:47:00,,1814.00,1101.00,334.00,177.00,107.00,121.00,73.00,35.00,APPROVED
NJ: EDISON,01/01/2020 21:47:00,,1804.00,1085.00,326.00,173.00,108.00,121.00,73.00,37.00,APPROVED
NJ: EDISON,01/01/2020 22:47:00,,1794.00,1079.00,325.00,171.00,107.00,121.00,75.00,37.00,APPROVED
NJ: EDISON,01/01/2020 23:47:00,,1775.00,1085.00,325.00,171.00,105.00,116.00,74.00,35.00,APPROVED
NJ: EDISON,01/02/2020 00:48:00,,1786.00,1074.00,323.00,172.00,106.00,116.00,74.00,35.00,APPROVED
NJ: EDISON,01/02/2020 01:48:00,,1784.00,1083.00,325.00,173.00,107.00,119.00,75.00,36.00,APPROVED
NJ: EDISON,01/02/2020 02:48:00,,1779.00,1078.00,327.00,173.00,105.00,119.00,74.00,35.00,APPROVED
NJ: EDISON,01/02/2020 03:48:00,,1791.00,1085.00,326.00,172.00,107.00,121.00,74.00,35.00,APPROVED
NJ: EDISON,01/02/2020 04:48:00,,1765.00,1081.00,324.00,171.00,105.00,116.00,74.00,36.00,APPROVED
NJ: EDISON,01/02/2020 05:49:00,,1786.00,1086.00,326.00,175.00,107.00,119.00,74.00,35.00,APPROVED
NJ: EDISON,01/02/2020 06:49:00,,1785.00,1096.00,328.00,175.00,105.00,119.00,76.00,38.00,APPROVED
NJ: EDISON,01/02/2020 07:49:00,,1798.00,1106.00,332.00,179.00,110.00,122.00,75.00,36.00,APPROVED
NJ: EDISON,01/02/2020 08:49:00,,1808.00,1120.00,333.00,182.00,111.00,123.00,78.00,35.00,APPROVED
NJ: EDISON,01/02/2020 09:49:00,,1813.00,1134.00,338.00,186.00,110.00,126.00,78.00,38.00,APPROVED
NJ: EDISON,01/02/2020 10:49:00,,1829.00,1147.00,339.00,190.00,112.00,128.00,82.00,37.00,APPROVED
NJ: EDISON,01/02/2020 11:50:00,,1827.00,1139.00,340.00,188.00,110.00,126.00,77.00,37.00,APPROVED
NJ: EDISON,01/02/2020 12:50:00,,1811.00,1129.00,338.00,183.00,113.00,125.00,80.00,39.00,APPROVED
NJ: EDISON,01/02/2020 13:50:00,,1809.00,1145.00,340.00,188.00,112.00,123.00,78.00,37.00,APPROVED
NJ: EDISON,01/02/2020 14:50:00,,1848.00,1146.00,340.00,182.00,110.00,124.00,76.00,35.00,APPROVED
NJ: EDISON,01/02/2020 16:09:00,,1788.00,1059.00,318.00,161.00,102.00,111.00,71.00,33.00,APPROVED
NJ: EDISON,01/02/2020 17:09:00,,1820.00,1077.00,325.00,164.00,103.00,116.00,70.00,34.00,APPROVED
NJ: EDISON,01/02/2020 18:10:00,,1814.00,1074.00,318.00,166.00,105.00,116.00,71.00,35.00,APPROVED
NJ: EDISON,01/02/2020 19:10:00,,1797.00,1062.00,323.00,164.00,105.00,114.00,70.00,34.00,APPROVED
NJ: EDISON,01/02/2020 20:10:00,,1814.00,1069.00,320.00,162.00,102.00,115.00,70.00,34.00,APPROVED
NJ: EDISON,01/02/2020 21:10:00,,1806.00,1072.00,324.00,162.00,104.00,116.00,71.00,34.00,APPROVED
NJ: EDISON,01/02/2020 22:10:00,,1804.00,1064.00,317.00,165.00,105.00,117.00,70.00,34.00,APPROVED
NJ: EDISON,01/02/2020 23:11:00,,1814.00,1073.00,321.00,163.00,101.00,114.00,71.00,35.00,APPROVED
NJ: EDISON,01/03/2020 00:11:00,,1816.00,1072.00,319.00,167.00,102.00,116.00,71.00,34.00,APPROVED
NJ: EDISON,01/03/2020 01:11:00,,1820.00,1087.00,323.00,169.00,104.00,116.00,72.00,35.00,APPROVED
NJ: EDISON,01/03/2020 02:11:00,,1831.00,1093.00,325.00,167.00,106.00,118.00,73.00,36.00,APPROVED
NJ: EDISON,01/03/2020 03:11:00,,1832.00,1096.00,326.00,168.00,107.00,116.00,72.00,34.00,APPROVED
NJ: EDISON,01/03/2020 04:11:00,,1834.00,1103.00,330.00,170.00,105.00,118.00,71.00,36.00,APPROVED
NJ: EDISON,01/03/2020 05:12:00,,1830.00,1094.00,327.00,169.00,108.00,117.00,71.00,34.00,APPROVED
NJ: EDISON,01/03/2020 06:12:00,,1839.00,1104.00,325.00,170.00,103.00,120.00,73.00,35.00,APPROVED
NJ: EDISON,01/03/2020 07:12:00,,1833.00,1093.00,323.00,170.00,104.00,120.00,73.00,35.00,APPROVED
NJ: EDISON,01/03/2020 08:12:00,,1855.00,1103.00,328.00,171.00,107.00,119.00,72.00,35.00,APPROVED
NJ: EDISON,01/03/2020 10:13:00,,1926.00,1177.00,349.00,184.00,110.00,125.00,76.00,37.00,APPROVED
NJ: EDISON,01/03/2020 11:13:00,,1949.00,1204.00,356.00,192.00,113.00,129.00,78.00,36.00,APPROVED
NJ: EDISON,01/03/2020 12:13:00,,2020.00,1271.00,382.00,207.00,118.00,141.00,81.00,38.00,APPROVED
NJ: EDISON,01/03/2020 13:13:00,,2020.00,1273.00,380.00,211.00,121.00,144.00,82.00,37.00,APPROVED
NJ: EDISON,01/03/2020 14:13:00,,1947.00,1210.00,362.00,191.00,114.00,133.00,80.00,36.00,APPROVED
NJ: EDISON,01/03/2020 15:14:00,,1947.00,1194.00,349.00,191.00,113.00,131.00,78.00,36.00,APPROVED
NJ: EDISON,01/03/2020 16:14:00,,1917.00,1177.00,349.00,186.00,111.00,126.00,75.00,35.00,APPROVED
NJ: EDISON,01/03/2020 17:14:00,,1886.00,1145.00,342.00,180.00,109.00,124.00,75.00,36.00,APPROVED
NJ: EDISON,01/03/2020 18:14:00,,1900.00,1155.00,340.00,181.00,111.00,125.00,78.00,35.00,APPROVED
NJ: EDISON,01/03/2020 19:14:00,,1905.00,1173.00,348.00,188.00,110.00,127.00,75.00,36.00,APPROVED
NJ: EDISON,01/03/2020 20:15:00,,1904.00,1173.00,347.00,190.00,110.00,130.00,76.00,36.00,APPROVED
NJ: EDISON,01/03/2020 21:15:00,,1916.00,1181.00,344.00,192.00,112.00,130.00,78.00,37.00,APPROVED
NJ: EDISON,01/03/2020 22:15:00,,1919.00,1185.00,350.00,189.00,111.00,132.00,77.00,36.00,APPROVED
NJ: EDISON,01/03/2020 23:15:00,,1923.00,1187.00,356.00,190.00,113.00,134.00,79.00,37.00,APPROVED
NJ: EDISON,01/04/2020 00:15:00,,1929.00,1202.00,352.00,192.00,112.00,131.00,80.00,37.00,APPROVED
NJ: EDISON,01/04/2020 01:16:00,,1982.00,1249.00,368.00,203.00,118.00,138.00,83.00,37.00,APPROVED
NJ: EDISON,01/04/2020 02:16:00,,1991.00,1277.00,378.00,211.00,121.00,140.00,84.00,37.00,APPROVED
NJ: EDISON,01/04/2020 03:16:00,,2051.00,1327.00,392.00,224.00,120.00,148.00,88.00,40.00,APPROVED
NJ: EDISON,01/04/2020 04:16:00,,2072.00,1348.00,394.00,227.00,125.00,154.00,89.00,40.00,APPROVED
NJ: EDISON,01/04/2020 05:16:00,,2056.00,1325.00,398.00,228.00,127.00,148.00,89.00,39.00,APPROVED
NJ: EDISON,01/04/2020 06:17:00,,2065.00,1344.00,395.00,226.00,128.00,150.00,87.00,39.00,APPROVED
NJ: EDISON,01/04/2020 07:17:00,,2153.00,1428.00,421.00,245.00,136.00,164.00,93.00,42.00,APPROVED
NJ: EDISON,01/04/2020 08:17:00,,2327.00,1604.00,467.00,277.00,144.00,184.00,103.00,44.00,APPROVED
NJ: EDISON,01/04/2020 09:17:00,,2332.00,1596.00,468.00,273.00,147.00,183.00,103.00,43.00,APPROVED
NJ: EDISON,01/04/2020 10:17:00,,2196.00,1461.00,436.00,252.00,137.00,168.00,94.00,41.00,APPROVED
NJ: EDISON,01/04/2020 11:18:00,,2063.00,1346.00,402.00,232.00,127.00,154.00,90.00,40.00,APPROVED
NJ: EDISON,01/04/2020 12:18:00,,1972.00,1291.00,384.00,222.00,125.00,149.00,86.00,39.00,APPROVED
NJ: EDISON,01/04/2020 13:18:00,,1949.00,1263.00,374.00,216.00,123.00,145.00,84.00,40.00,APPROVED
NJ: EDISON,01/04/2020 14:18:00,,1911.00,1209.00,358.00,199.00,117.00,138.00,81.00,38.00,APPROVED
NJ: EDISON,01/04/2020 15:18:00,,1911.00,1205.00,357.00,197.00,115.00,135.00,79.00,37.00,APPROVED
NJ: EDISON,01/04/2020 16:19:00,,1908.00,1183.00,358.00,193.00,112.00,133.00,77.00,36.00,APPROVED
NJ: EDISON,01/04/2020 17:19:00,,1958.00,1227.00,363.00,200.00,115.00,137.00,80.00,38.00,APPROVED
NJ: EDISON,01/04/2020 18:19:00,,1967.00,1262.00,374.00,213.00,120.00,144.00,84.00,38.00,APPROVED
NJ: EDISON,01/04/2020 19:19:00,,1980.00,1265.00,374.00,212.00,122.00,145.00,84.00,39.00,APPROVED
NJ: EDISON,01/04/2020 20:19:00,,1993.00,1277.00,376.00,215.00,123.00,149.00,84.00,40.00,APPROVED
NJ: EDISON,01/04/2020 21:20:00,,2000.00,1279.00,374.00,214.00,120.00,144.00,83.00,39.00,APPROVED
NJ: EDISON,01/04/2020 22:20:00,,1992.00,1278.00,376.00,211.00,121.00,143.00,84.00,40.00,APPROVED
NJ: EDISON,01/04/2020 23:20:00,,2014.00,1280.00,378.00,215.00,119.00,146.00,84.00,38.00,APPROVED
NJ: EDISON,01/05/2020 00:20:00,,2000.00,1269.00,376.00,208.00,124.00,141.00,83.00,39.00,APPROVED
NJ: EDISON,01/05/2020 01:20:00,,1975.00,1240.00,365.00,201.00,116.00,138.00,81.00,38.00,APPROVED
NJ: EDISON,01/05/2020 02:21:00,,2018.00,1268.00,382.00,211.00,120.00,141.00,83.00,39.00,APPROVED
NJ: EDISON,01/05/2020 03:21:00,,2207.00,1478.00,442.00,245.00,135.00,166.00,94.00,40.00,APPROVED
NJ: EDISON,01/05/2020 04:21:00,,2142.00,1403.00,425.00,237.00,134.00,164.00,91.00,40.00,APPROVED
NJ: EDISON,01/05/2020 05:21:00,,2084.00,1350.00,410.00,229.00,126.00,155.00,92.00,41.00,APPROVED
NJ: EDISON,01/05/2020 06:21:00,,1922.00,1206.00,365.00,197.00,117.00,137.00,83.00,37.00,APPROVED
NJ: EDISON,01/05/2020 07:22:00,,1830.00,1131.00,337.00,186.00,109.00,124.00,78.00,36.00,APPROVED
NJ: EDISON,01/05/2020 08:22:00,,1803.00,1122.00,332.00,180.00,109.00,121.00,76.00,35.00,APPROVED
NJ: EDISON,01/05/2020 09:22:00,,1798.00,1101.00,337.00,177.00,109.00,120.00,74.00,36.00,APPROVED
NJ: EDISON,01/05/2020 10:22:00,,1780.00,1097.00,332.00,173.00,108.00,123.00,74.00,37.00,APPROVED
NJ: EDISON,01/05/2020 11:22:00,,1793.00,1103.00,331.00,177.00,108.00,119.00,74.00,36.00,APPROVED
NJ: EDISON,01/05/2020 12:23:00,,1789.00,1111.00,332.00,177.00,109.00,122.00,75.00,35.00,APPROVED
NJ: EDISON,01/05/2020 13:23:00,,1788.00,1093.00,328.00,180.00,108.00,122.00,76.00,36.00,APPROVED
NJ: EDISON,01/05/2020 14:23:00,,1785.00,1096.00,333.00,175.00,108.00,122.00,73.00,35.00,APPROVED
NJ: EDISON,01/05/2020 15:23:00,,1783.00,1087.00,332.00,173.00,103.00,123.00,73.00,36.00,APPROVED
NJ: EDISON,01/05/2020 16:23:00,,1781.00,1089.00,325.00,168.00,106.00,118.00,74.00,34.00,APPROVED
NJ: EDISON,01/05/2020 17:24:00,,1777.00,1074.00,325.00,165.00,104.00,118.00,72.00,35.00,APPROVED
NJ: EDISON,01/05/2020 18:24:00,,1775.00,1066.00,321.00,163.00,105.00,114.00,71.00,36.00,APPROVED
NJ: EDISON,01/05/2020 19:24:00,,1769.00,1051.00,317.00,164.00,103.00,113.00,72.00,35.00,APPROVED
NJ: EDISON,01/05/2020 20:24:00,,1767.00,1052.00,320.00,163.00,102.00,116.00,73.00,34.00,APPROVED
NJ: EDISON,01/05/2020 21:24:00,,1765.00,1050.00,313.00,163.00,101.00,113.00,71.00,34.00,APPROVED
NJ: EDISON,01/05/2020 22:25:00,,1766.00,1046.00,312.00,162.00,104.00,110.00,71.00,34.00,APPROVED
NJ: EDISON,01/05/2020 23:25:00,,1747.00,1028.00,311.00,158.00,99.00,112.00,69.00,33.00,APPROVED
NJ: EDISON,01/06/2020 00:25:00,,1733.00,1029.00,317.00,160.00,103.00,111.00,69.00,35.00,APPROVED
NJ: EDISON,01/06/2020 01:25:00,,1740.00,1029.00,313.00,157.00,101.00,111.00,68.00,34.00,APPROVED
NJ: EDISON,01/06/2020 02:25:00,,1754.00,1033.00,310.00,159.00,102.00,109.00,71.00,34.00,APPROVED
NJ: EDISON,01/06/2020 03:26:00,,1738.00,1044.00,313.00,158.00,99.00,112.00,69.00,34.00,APPROVED
NJ: EDISON,01/06/2020 04:26:00,,1760.00,1040.00,311.00,160.00,102.00,112.00,71.00,34.00,APPROVED
NJ: EDISON,01/06/2020 05:26:00,,1781.00,1071.00,323.00,170.00,105.00,114.00,72.00,35.00,APPROVED
NJ: EDISON,01/06/2020 06:26:00,,1897.00,1204.00,357.00,194.00,114.00,129.00,82.00,38.00,APPROVED
NJ: EDISON,01/06/2020 07:26:00,,1885.00,1185.00,362.00,195.00,113.00,134.00,80.00,37.00,APPROVED
NJ: EDISON,01/06/2020 08:27:00,,1812.00,1119.00,335.00,183.00,109.00,124.00,78.00,37.00,APPROVED
NJ: EDISON,01/06/2020 09:27:00,,1779.00,1077.00,322.00,173.00,105.00,119.00,73.00,37.00,APPROVED
NJ: EDISON,01/06/2020 10:27:00,,1759.00,1065.00,321.00,167.00,106.00,117.00,73.00,34.00,APPROVED
NJ: EDISON,01/06/2020 11:27:00,,1747.00,1071.00,322.00,170.00,106.00,118.00,73.00,34.00,APPROVED
NJ: EDISON,01/06/2020 12:27:00,,1751.00,1063.00,322.00,168.00,103.00,117.00,73.00,35.00,APPROVED
NJ: EDISON,01/06/2020 13:28:00,,1775.00,1074.00,324.00,172.00,106.00,117.00,73.00,35.00,APPROVED
NJ: EDISON,01/06/2020 14:28:00,,1776.00,1082.00,331.00,173.00,106.00,119.00,75.00,35.00,APPROVED
NJ: EDISON,01/06/2020 15:28:00,,1785.00,1087.00,326.00,174.00,104.00,116.00,75.00,36.00,APPROVED
NJ: EDISON,01/06/2020 16:28:00,,1810.00,1090.00,325.00,169.00,106.00,121.00,72.00,35.00,APPROVED
NJ: EDISON,01/06/2020 17:28:00,,1824.00,1102.00,331.00,174.00,107.00,121.00,73.00,36.00,APPROVED
NJ: EDISON,01/06/2020 18:29:00,,1841.00,1123.00,335.00,177.00,109.00,123.00,74.00,36.00,APPROVED
NJ: EDISON,01/06/2020 19:29:00,,1841.00,1121.00,337.00,174.00,111.00,122.00,74.00,37.00,APPROVED
NJ: EDISON,01/06/2020 20:29:00,,1838.00,1117.00,333.00,177.00,105.00,121.00,75.00,36.00,APPROVED
NJ: EDISON,01/06/2020 21:29:00,,1840.00,1121.00,335.00,174.00,110.00,121.00,74.00,36.00,APPROVED
NJ: EDISON,01/06/2020 22:29:00,,1852.00,1120.00,340.00,178.00,108.00,121.00,72.00,36.00,APPROVED
NJ: EDISON,01/06/2020 23:30:00,,1838.00,1113.00,337.00,178.00,109.00,120.00,73.00,34.00,APPROVED
NJ: EDISON,01/07/2020 00:30:00,,1828.00,1112.00,334.00,176.00,107.00,120.00,75.00,36.00,APPROVED
NJ: EDISON,01/07/2020 01:30:00,,1802.00,1095.00,329.00,172.00,105.00,121.00,72.00,34.00,APPROVED
NJ: EDISON,01/07/2020 02:30:00,,1794.00,1087.00,325.00,171.00,107.00,116.00,73.00,33.00,APPROVED
NJ: EDISON,01/07/2020 03:30:00,,1790.00,1080.00,327.00,168.00,104.00,118.00,71.00,35.00,APPROVED
NJ: EDISON,01/07/2020 04:31:00,,1793.00,1083.00,323.00,170.00,104.00,116.00,72.00,34.00,APPROVED
NJ: EDISON,01/07/2020 05:31:00,,1786.00,1080.00,324.00,166.00,106.00,116.00,73.00,35.00,APPROVED
NJ: EDISON,01/07/2020 06:31:00,,1790.00,1073.00,326.00,167.00,104.00,117.00,72.00,35.00,APPROVED
NJ: EDISON,01/07/2020 07:31:00,,1787.00,1081.00,324.00,172.00,104.00,118.00,73.00,36.00,APPROVED
NJ: EDISON,01/07/2020 08:31:00,,1787.00,1076.00,327.00,170.00,108.00,116.00,73.00,34.00,APPROVED
NJ: EDISON,01/07/2020 09:32:00,,1785.00,1090.00,325.00,171.00,104.00,118.00,73.00,35.00,APPROVED
NJ: EDISON,01/07/2020 10:32:00,,1802.00,1094.00,328.00,170.00,106.00,119.00,72.00,34.00,APPROVED
NJ: EDISON,01/07/2020 11:32:00,,1798.00,1105.00,329.00,176.00,106.00,122.00,73.00,34.00,APPROVED
NJ: EDISON,01/07/2020 12:32:00,,1799.00,1100.00,330.00,174.00,108.00,120.00,74.00,35.00,APPROVED
NJ: EDISON,01/07/2020 13:32:00,,1807.00,1105.00,333.00,173.00,107.00,122.00,75.00,36.00,APPROVED
NJ: EDISON,01/07/2020 14:33:00,,1834.00,1118.00,336.00,177.00,108.00,123.00,76.00,36.00,APPROVED
NJ: EDISON,01/07/2020 15:33:00,,1845.00,1122.00,332.00,178.00,107.00,122.00,74.00,35.00,APPROVED
NJ: EDISON,01/07/2020 16:33:00,,1830.00,1101.00,330.00,176.00,108.00,121.00,73.00,34.00,APPROVED
NJ: EDISON,01/07/2020 17:33:00,,1811.00,1087.00,327.00,168.00,105.00,118.00,72.00,35.00,APPROVED
NJ: EDISON,01/07/2020 18:33:00,,1813.00,1084.00,323.00,167.00,104.00,116.00,72.00,34.00,APPROVED
NJ: EDISON,01/07/2020 19:34:00,,1794.00,1082.00,327.00,169.00,103.00,117.00,70.00,35.00,APPROVED
NJ: EDISON,01/07/2020 20:34:00,,1793.00,1067.00,321.00,167.00,102.00,113.00,72.00,34.00,APPROVED
NJ: EDISON,01/07/2020 21:34:00,,1782.00,1066.00,319.00,164.00,102.00,117.00,71.00,34.00,APPROVED
NJ: EDISON,01/07/2020 22:34:00,,1800.00,1064.00,319.00,166.00,106.00,115.00,71.00,34.00,APPROVED
NJ: EDISON,01/07/2020 23:34:00,,1814.00,1080.00,324.00,165.00,103.00,117.00,71.00,35.00,APPROVED
NJ: EDISON,01/08/2020 00:35:00,,1955.00,1213.00,366.00,195.00,115.00,134.00,80.00,37.00,APPROVED
NJ: EDISON,01/08/2020 01:35:00,,1904.00,1177.00,357.00,191.00,111.00,131.00,80.00,37.00,APPROVED
NJ: EDISON,01/08/2020 02:35:00,,1819.00,1098.00,334.00,170.00,106.00,119.00,73.00,35.00,APPROVED
NJ: EDISON,01/08/2020 03:35:00,,1785.00,1074.00,322.00,165.00,102.00,114.00,71.00,34.00,APPROVED
NJ: EDISON,01/08/2020 04:35:00,,1791.00,1074.00,323.00,168.00,105.00,118.00,72.00,35.00,APPROVED
NJ: EDISON,01/08/2020 05:36:00,,1803.00,1105.00,329.00,170.00,108.00,119.00,73.00,35.00,APPROVED
NJ: EDISON,01/08/2020 06:36:00,,1794.00,1109.00,335.00,180.00,109.00,124.00,76.00,36.00,APPROVED
NJ: EDISON,01/08/2020 07:36:00,,1790.00,1112.00,333.00,179.00,107.00,124.00,78.00,36.00,APPROVED
NJ: EDISON,01/08/2020 08:36:00,,1814.00,1110.00,332.00,179.00,110.00,123.00,77.00,37.00,APPROVED
NJ: EDISON,01/08/2020 09:36:00,,1802.00,1119.00,334.00,181.00,109.00,125.00,78.00,35.00,APPROVED
NJ: EDISON,01/08/2020 10:37:00,,1801.00,1117.00,336.00,184.00,111.00,126.00,75.00,38.00,APPROVED
NJ: EDISON,01/08/2020 11:37:00,,1803.00,1132.00,339.00,184.00,112.00,126.00,79.00,36.00,APPROVED
NJ: EDISON,01/08/2020 12:37:00,,1830.00,1137.00,340.00,186.00,112.00,128.00,82.00,38.00,APPROVED
NJ: EDISON,01/08/2020 13:37:00,,1830.00,1139.00,345.00,189.00,111.00,128.00,79.00,37.00,APPROVED
NJ: EDISON,01/08/2020 14:37:00,,1843.00,1156.00,348.00,193.00,114.00,128.00,81.00,38.00,APPROVED
NJ: EDISON,01/08/2020 15:38:00,,1864.00,1169.00,348.00,192.00,113.00,126.00,78.00,37.00,APPROVED
NJ: EDISON,01/08/2020 17:05:00,,1791.00,1061.00,318.00,159.00,105.00,112.00,70.00,33.00,APPROVED
NJ: EDISON,01/08/2020 18:05:00,,1808.00,1088.00,325.00,169.00,108.00,118.00,72.00,35.00,APPROVED
NJ: EDISON,01/08/2020 19:06:00,,1765.00,1071.00,319.00,167.00,106.00,114.00,73.00,35.00,APPROVED
NJ: EDISON,01/08/2020 20:06:00,,1759.00,1058.00,314.00,161.00,104.00,114.00,69.00,34.00,APPROVED
NJ: EDISON,01/08/2020 21:06:00,,1752.00,1049.00,318.00,160.00,101.00,113.00,70.00,34.00,APPROVED
NJ: EDISON,01/08/2020 22:06:00,,1739.00,1038.00,313.00,161.00,100.00,109.00,73.00,36.00,APPROVED
NJ: EDISON,01/08/2020 23:06:00,,1732.00,1035.00,313.00,163.00,101.00,112.00,71.00,34.00,APPROVED
NJ: EDISON,01/09/2020 00:07:00,,1731.00,1036.00,313.00,164.00,102.00,113.00,73.00,34.00,APPROVED
NJ: EDISON,01/09/2020 01:07:00,,1739.00,1038.00,318.00,162.00,103.00,115.00,73.00,35.00,APPROVED
NJ: EDISON,01/09/2020 02:07:00,,1740.00,1049.00,320.00,164.00,102.00,115.00,71.00,35.00,APPROVED
NJ: EDISON,01/09/2020 03:07:00,,1726.00,1060.00,319.00,166.00,104.00,114.00,73.00,35.00,APPROVED
NJ: EDISON,01/09/2020 04:07:00,,1746.00,1064.00,321.00,170.00,104.00,116.00,75.00,36.00,APPROVED
NJ: EDISON,01/09/2020 05:08:00,,1743.00,1067.00,320.00,171.00,104.00,117.00,76.00,37.00,APPROVED
NJ: EDISON,01/09/2020 06:08:00,,1733.00,1059.00,318.00,173.00,105.00,116.00,74.00,36.00,APPROVED
NJ: EDISON,01/09/2020 07:08:00,,1691.00,1038.00,313.00,166.00,103.00,112.00,75.00,34.00,APPROVED
NJ: EDISON,01/09/2020 08:08:00,,1688.00,1032.00,314.00,168.00,102.00,115.00,73.00,35.00,APPROVED
NJ: EDISON,01/09/2020 09:08:00,,1682.00,1024.00,310.00,166.00,102.00,113.00,74.00,36.00,APPROVED
NJ: EDISON,01/09/2020 10:09:00,,1698.00,1028.00,315.00,163.00,100.00,111.00,72.00,34.00,APPROVED
NJ: EDISON,01/09/2020 11:09:00,,1706.00,1031.00,312.00,162.00,101.00,112.00,75.00,34.00,APPROVED
NJ: EDISON,01/09/2020 12:09:00,,1694.00,1043.00,313.00,168.00,103.00,114.00,72.00,36.00,APPROVED
NJ: EDISON,01/09/2020 13:09:00,,1717.00,1035.00,314.00,165.00,101.00,115.00,71.00,34.00,APPROVED
NJ: EDISON,01/09/2020 14:09:00,,1731.00,1056.00,316.00,166.00,103.00,114.00,73.00,34.00,APPROVED
NJ: EDISON,01/09/2020 15:10:00,,1732.00,1056.00,312.00,165.00,105.00,112.00,73.00,36.00,APPROVED
NJ: EDISON,01/09/2020 16:10:00,,1751.00,1060.00,316.00,173.00,105.00,112.00,73.00,34.00,APPROVED
NJ: EDISON,01/09/2020 17:10:00,,1761.00,1068.00,318.00,167.00,105.00,114.00,73.00,36.00,APPROVED
NJ: EDISON,01/09/2020 18:10:00,,1779.00,1058.00,319.00,168.00,101.00,111.00,72.00,35.00,APPROVED
NJ: EDISON,01/09/2020 19:10:00,,1786.00,1066.00,317.00,167.00,102.00,114.00,73.00,33.00,APPROVED
NJ: EDISON,01/09/2020 20:11:00,,1784.00,1061.00,314.00,164.00,102.00,113.00,70.00,34.00,APPROVED
NJ: EDISON,01/09/2020 21:11:00,,1765.00,1041.00,314.00,160.00,102.00,111.00,70.00,35.00,APPROVED
NJ: EDISON,01/09/2020 22:11:00,,1753.00,1044.00,312.00,162.00,101.00,112.00,70.00,34.00,APPROVED
NJ: EDISON,01/09/2020 23:11:00,,1736.00,1029.00,309.00,157.00,99.00,111.00,71.00,34.00,APPROVED
NJ: EDISON,01/10/2020 00:11:00,,1729.00,1035.00,310.00,158.00,100.00,110.00,69.00,35.00,APPROVED
NJ: EDISON,01/10/2020 01:12:00,,1738.00,1036.00,308.00,158.00,103.00,111.00,72.00,34.00,APPROVED
NJ: EDISON,01/10/2020 02:12:00,,1725.00,1035.00,310.00,161.00,102.00,110.00,70.00,35.00,APPROVED
NJ: EDISON,01/10/2020 03:12:00,,1729.00,1043.00,317.00,160.00,102.00,112.00,70.00,32.00,APPROVED
NJ: EDISON,01/10/2020 04:12:00,,1740.00,1038.00,315.00,164.00,101.00,113.00,71.00,35.00,APPROVED
NJ: EDISON,01/10/2020 05:12:00,,1738.00,1036.00,312.00,160.00,103.00,110.00,71.00,34.00,APPROVED
NJ: EDISON,01/10/2020 06:13:00,,1734.00,1036.00,312.00,161.00,99.00,113.00,72.00,35.00,APPROVED
NJ: EDISON,01/10/2020 07:13:00,,1730.00,1040.00,318.00,163.00,104.00,112.00,71.00,34.00,APPROVED
NJ: EDISON,01/10/2020 08:13:00,,1733.00,1033.00,313.00,163.00,102.00,110.00,70.00,34.00,APPROVED
NJ: EDISON,01/10/2020 09:13:00,,1728.00,1044.00,317.00,161.00,102.00,113.00,72.00,35.00,APPROVED
NJ: EDISON,01/10/2020 10:13:00,,1734.00,1058.00,321.00,163.00,103.00,113.00,72.00,36.00,APPROVED
NJ: EDISON,01/10/2020 11:14:00,,1748.00,1053.00,319.00,169.00,101.00,115.00,74.00,35.00,APPROVED
NJ: EDISON,01/10/2020 12:14:00,,1741.00,1057.00,319.00,168.00,105.00,113.00,71.00,34.00,APPROVED
NJ: EDISON,01/10/2020 13:14:00,,1767.00,1068.00,319.00,166.00,105.00,115.00,73.00,34.00,APPROVED
NJ: EDISON,01/10/2020 14:14:00,,1786.00,1076.00,324.00,167.00,105.00,116.00,74.00,35.00,APPROVED
NJ: EDISON,01/10/2020 15:14:00,,1792.00,1083.00,325.00,168.00,105.00,116.00,73.00,34.00,APPROVED
NJ: EDISON,01/10/2020 16:15:00,,1812.00,1094.00,321.00,171.00,106.00,117.00,72.00,34.00,APPROVED
NJ: EDISON,01/10/2020 17:15:00,,1819.00,1092.00,324.00,169.00,103.00,117.00,73.00,35.00,APPROVED
NJ: EDISON,01/10/2020 18:15:00,,1804.00,1075.00,324.00,163.00,104.00,115.00,68.00,34.00,APPROVED
NJ: EDISON,01/10/2020 19:15:00,,1804.00,1069.00,317.00,165.00,103.00,112.00,70.00,35.00,APPROVED
NJ: EDISON,01/10/2020 20:15:00,,1806.00,1055.00,314.00,158.00,101.00,112.00,69.00,34.00,APPROVED
NJ: EDISON,01/10/2020 21:16:00,,1809.00,1052.00,313.00,159.00,102.00,112.00,67.00,33.00,APPROVED
NJ: EDISON,01/10/2020 22:16:00,,1787.00,1044.00,312.00,159.00,103.00,112.00,69.00,32.00,APPROVED
NJ: EDISON,01/10/2020 23:16:00,,1785.00,1049.00,315.00,153.00,102.00,111.00,68.00,33.00,APPROVED
NJ: EDISON,01/11/2020 00:16:00,,1790.00,1048.00,312.00,157.00,103.00,111.00,67.00,33.00,APPROVED
NJ: EDISON,01/11/2020 01:16:00,,1790.00,1056.00,313.00,158.00,101.00,115.00,68.00,34.00,APPROVED
NJ: EDISON,01/11/2020 02:17:00,,1793.00,1055.00,317.00,160.00,101.00,111.00,67.00,34.00,APPROVED
NJ: EDISON,01/11/2020 03:17:00,,1792.00,1055.00,319.00,159.00,101.00,114.00,67.00,34.00,APPROVED
NJ: EDISON,01/11/2020 04:17:00,,1801.00,1055.00,313.00,160.00,105.00,113.00,68.00,34.00,APPROVED
NJ: EDISON,01/11/2020 05:17:00,,1799.00,1069.00,323.00,161.00,101.00,114.00,71.00,34.00,APPROVED
NJ: EDISON,01/11/2020 06:17:00,,1797.00,1054.00,318.00,161.00,101.00,112.00,72.00,33.00,APPROVED